Find ARVAKER 1

NORAD ID: 63252 Int'l Des: 2025-052 Owner: NSC Country: N operational
LEOCIRCULARRETROGRADESSO

リアルタイム位置

3D地球を読み込み中...

ARVAKER 1について

説明を読み込み中...

次回通過

Passes for default location (London). Set your location on the main map for personalized predictions.

高度履歴

Loading altitude history...

軌道要素

1 63252U 25052AU 26104.60747926 .00000861 00000-0 85319-4 0 9991
2 63252 97.6945 357.1001 0004091 76.4762 283.6914 14.94319813 59115
Epoch: Apr 14, 2026 • Age: 19 hours

現在のステータス

高度 605.1 km
速度 7.55 km/s
衛星直下点 -48.99°S, 18.55°E
打ち上げ日 Mar 15, 2025
運用期間 1 years
タイプ other

技術仕様

分類 Payload
質量 100.00 kg
乾燥質量 100.00 kg
総質量 100.00 kg
長さ 0.40 m
直径 0.20 m
スパン 1.00 m
形状 Box+2 pan
製造者 NANAV
バスタイプ MP42
フェーズステータス In Orbit
所有者/国 NSC/N

Most Searched